Regional Weather Roundup
Issued by NWS

Home | Current Version | Previous Version | Text Only | Print | Product List | Glossary On
Versions: 1 2 3 4 5 6 7 8 9 10 11 12 13 14 15 16 17 18 19 20 21 22 23 24 25 26 27 28 29 30 31 32 33 34 35 36 37 38 39 40 41 42 43 44 45 46 47 48 49 50
000
ASUS44 KJAN 272310
RWRMS

MISSISSIPPI HOURLY WEATHER ROUNDUP
NATIONAL WEATHER SERVICE JACKSON MS
600 PM CDT THU AUG 27 2015

NOTE: "FAIR: INDICATES FEW OR NO CLOUDS BELOW 12,000 FEET WITH NO
SIGNIFICANT WEATHER AND/OR OBSTRUCTIONS TO VISIBILITY.

MSZ001>002-007>008-010>013-018>021-025>028-034>036-280000-
NORTHWEST MISSISSIPPI

CITY           SKY/WX    TMP DP  RH WIND       PRES   REMARKS
CLARKSDALE     FAIR      81  59  47 N9        30.05F
CLEVELAND      FAIR      82  57  42 N15       30.03F
GREENWOOD      MOSUNNY   82  57  42 N10       30.02S
GREENVILLE     SUNNY     83  58  42 N12       30.02F
OLIVE BRANCH   MOSUNNY   79  57  47 NE9       30.06F
OXFORD         FAIR      77  55  47 NE9G16    30.07F
TUNICA         CLEAR     79  61  53 N8        30.06S
$$

MSZ003>006-009-014>017-022>024-029>033-037>039-280000-
NORTHEAST MISSISSIPPI

CITY           SKY/WX    TMP DP  RH WIND       PRES   REMARKS
COLUMBUS AFB   SUNNY     82  60  46 N10       30.01S
CORINTH        FAIR      79  57  47 N5G12     30.05F
GOLDN TRIANGLE SUNNY     82  57  42 N12       30.01S
STARKVILLE     FAIR      81  55  41 N6        30.02S
TUPELO         SUNNY     81  55  40 NE9       30.04S
$$

MSZ040-058-280000-
CENTRAL MISSISSIPPI

CITY           SKY/WX    TMP DP  RH WIND       PRES   REMARKS
JACKSON INTL   SUNNY     87  54  32 N10       29.99R
JACKSON HAWKNS SUNNY     86  55  34 VRB7      30.00R
MERIDIAN KEY   SUNNY     83  57  41 N9        29.99R
MERIDIAN NAS   MOSUNNY   84  58  40 N12       29.99S
VICKSBURG      SUNNY     86  57  37 N9        29.99F
$$

MSZ059>079-280000-
SOUTH MISSISSIPPI

CITY           SKY/WX    TMP DP  RH WIND       PRES   REMARKS
BROOKHAVEN     FAIR      86  55  35 N9        30.00S
HATTIESBURG    SUNNY     86  56  35 NE7G25    29.96S
MCCOMB         SUNNY     87  57  35 VRB5      29.98R
NATCHEZ        SUNNY     82  57  42 NE10      30.01S
PINE BELT      SUNNY     84  48  28 E9        29.99F
$$

MSZ080>082-280000-
COASTAL MISSISSIPPI

CITY           SKY/WX    TMP DP  RH WIND       PRES   REMARKS
BAY ST LOUIS   MOSUNNY   86  54  32 NE7       29.95S
BILOXI         MOSUNNY   85  62  45 CALM      29.93F
PASCAGOULA     SUNNY     86  62  44 N8        29.93S
GULFPORT       MOSUNNY   86  61  42 NE5       29.93F
$$


USA.gov is the U.S. government's official web portal to all federal, state and local government web resources and services.